Lid_Strength_Index
3 3 3 3 3 3 3 3 3 3 4 4 5 5 5 5 5 8 10 7 6 2 2 6 6 7 7 10 10 9 14 15 13 12 11 9 10 6 6 7 6 7 8 8 5
3 3 3 3 3 3 3 3 3 4 4 4 5 5 5 5 8 9 5 3 1 1 5 9 10 9 11 11 11 12 15 14 11 10 10 9 10 9 8 8 7 8 7 7 7
2 2 2 2 2 3 3 4 3 4 4 4 4 5 4 5 11 9 1 1 1 1 5 7 8 9 13 13 12 13 14 11 10 8 8 10 10 8 9 10 8 10 9 7 8
2 2 2 2 2 2 2 4 3 3 4 4 4 5 5 7 17 5 -2 -1 -0 1 3 8 10 11 13 13 11 14 11 10 9 7 8 10 9 9 8 7 7 8 8 8 8
2 2 1 2 2 2 2 2 3 4 4 4 4 5 7 11 11 6 -1 -1 1 2 5 9 10 10 11 11 11 12 10 9 7 7 9 9 8 8 9 7 6 8 8 8 9
2 2 2 2 2 2 2 2 3 3 4 4 5 5 9 13 8 4 0 1 1 4 7 9 9 8 9 8 10 9 9 8 8 9 8 11 10 8 8 7 7 8 8 8 8
3 2 2 2 2 2 2 2 3 3 4 4 5 6 9 10 5 2 1 3 3 5 7 7 7 7 8 9 8 8 10 10 9 9 10 10 12 11 9 7 8 7 7 9 8
3 2 2 2 2 2 2 3 3 4 4 4 4 6 11 5 5 5 3 6 4 4 7 6 7 8 9 7 7 11 11 14 9 9 9 9 14 11 9 9 8 8 8 9 9
4 3 3 2 2 2 2 3 4 4 3 4 6 8 11 4 4 2 4 5 5 5 5 5 7 9 9 11 13 13 15 14 11 9 10 11 13 10 9 8 9 8 7 7 7
4 4 4 3 3 2 3 3 4 3 4 4 5 10 8 8 5 3 3 3 5 6 7 8 9 11 12 12 15 14 14 13 13 11 10 12 11 9 9 8 8 8 7 7 7
4 4 4 3 3 2 4 8 7 8 7 9 8 9 8 5 4 6 4 4 5 7 10 9 12 13 11 10 10 11 12 13 11 10 11 11 11 9 9 9 9 8 8 7 7
4 4 4 3 3 3 4 9 6 6 9 6 6 7 6 5 7 7 4 6 7 11 9 11 13 10 9 9 10 11 12 13 11 10 11 11 12 10 10 9 9 8 8 7 5
4 4 4 4 3 5 7 7 5 6 10 8 6 6 6 5 7 7 5 6 8 10 10 12 10 8 8 10 11 12 13 13 12 11 11 12 13 12 10 9 8 8 8 8 6
4 4 4 4 6 6 6 4 4 6 12 9 8 6 5 6 8 5 4 6 8 10 10 11 8 9 10 10 10 13 10 10 11 13 16 12 17 13 11 10 9 8 8 7 6
5 4 4 4 6 7 4 4 5 6 20 8 7 4 6 8 8 8 5 7 8 8 9 11 10 10 11 10 9 11 9 10 11 14 15 14 16 14 12 11 10 9 8 8 8
5 4 4 6 5 5 3 4 5 13 19 10 7 9 10 8 8 7 7 6 6 8 9 10 8 9 9 8 8 8 10 12 13 15 18 15 15 15 13 12 10 9 8 8 8
5 4 4 4 7 4 5 6 13 18 9 11 10 10 9 10 9 9 9 10 11 13 13 11 11 9 8 10 9 11 14 18 18 18 18 13 15 14 11 10 9 9 9 8 8
5 5 4 4 4 4 5 9 18 12 12 8 9 10 11 10 9 8 10 12 10 11 12 14 14 9 7 9 11 12 13 17 19 20 17 13 16 13 10 9 9 8 8 8 9
5 7 6 4 3 4 7 15 14 12 9 9 9 11 12 9 9 10 10 10 10 10 13 14 13 8 7 7 9 11 13 11 15 15 18 15 13 11 9 9 9 9 9 9 9
7 8 6 2 2 5 10 13 11 8 8 8 11 10 12 11 11 11 11 9 9 9 10 11 14 9 8 7 8 10 9 15 14 20 21 17 15 15 12 11 10 10 9 10 10
9 9 4 3 3 7 13 12 9 7 7 9 10 11 10 11 11 11 11 9 8 8 9 11 12 12 10 11 12 11 12 12 13 15 20 21 16 11 10 11 11 12 12 12 11
9 11 4 3 9 9 12 9 7 7 6 7 8 9 10 10 11 11 11 10 7 7 11 10 13 15 13 10 8 10 13 13 17 18 16 16 16 9 10 11 11 11 10 11 11
10 9 3 4 12 11 9 8 8 8 8 8 9 8 8 11 13 11 10 8 7 8 10 10 14 17 15 14 10 13 12 12 13 14 17 19 17 9 9 10 10 10 10 10 10
8 10 7 6 7 9 10 10 9 7 8 7 8 8 9 11 11 12 11 8 7 8 7 8 13 14 17 15 13 15 13 12 12 16 16 16 14 11 10 10 11 11 10 9 10
7 9 7 11 10 9 9 9 10 10 8 8 9 9 10 13 12 13 11 10 8 7 8 11 14 13 12 11 12 13 13 12 13 14 16 14 14 12 12 11 11 11 10 10 11
8 8 6 8 8 9 10 10 11 9 9 10 10 10 10 12 11 13 11 12 12 10 11 10 14 13 14 11 12 13 11 12 12 12 13 13 13 11 11 10 10 10 10 10 10
4 4 6 8 9 10 10 9 10 8 8 8 9 10 11 10 9 9 10 10 10 12 12 12 13 15 17 13 13 16 13 12 11 10 11 15 11 10 10 11 11 11 10 10 10